Montpelier, VT

12:23 AM EST on December 15, 2017 (GMT -0500)
Knapp State

Weather History for KMPV - May, 2014

Change the Weather History Date:

Monday, May 19, 2014

  Actual Average Record
Temperature  
Mean Temperature 51 °F 55 °F  
Max Temperature 61 °F 67 °F 90 °F (1962)
Min Temperature 41 °F 43 °F 28 °F (2009)
Degree Days  
Heating Degree Days 14 11  
Month to date heating degree days 251  
Since 1 July heating degree days 7955  
Cooling Degree Days 0 0  
Month to date cooling degree days 1 0  
Year to date cooling degree days 1 1  
Growing Degree Days 1 (Base 50)    
Moisture  
Dew Point 34 °F    
Average Humidity 53    
Maximum Humidity 70    
Minimum Humidity 36    
Precipitation  
Precipitation 0.00 in 0.11 in 1.63 in (1999)
Month to date precipitation 2.06 1.99  
Year to date precipitation 11.52 11.53  
Sea Level Pressure  
Sea Level Pressure 30.14 in    
Wind  
Wind Speed 9 mph (NW)    
Max Wind Speed 18 mph    
Max Gust Speed 29 mph    
Visibility 10 miles    
Events      
T = Trace of Precipitation, MM = Missing Value Source: NWS Daily Summary

Daily Weather History Graph

Daily Weather History Graph

Search for Another Location

Airport or City:

Trip Planner

Search our weather history database for the weather conditions in past years. The results will help you decide how hot, cold, wet, or windy it might be!

Date:

Astronomy

May. 19, 2014 Rise Set
Actual Time 5:19 AM EDT 8:14 PM EDT
Civil Twilight 4:45 AM EDT 8:48 PM EDT
Nautical Twilight 4:02 AM EDT 9:32 PM EDT
Astronomical Twilight 3:11 AM EDT 10:23 PM EDT
Moon No Moon Rise 10:17 AM EDT (5/19)
Length of Visible Light 16h 03m
Length of Day
14h 55m
Waning Gibbous, 71% of the Moon is Illuminated
May 19
Waning Gibbous
May 21
Last Quarter
May 28
New
Jun 5
First Quarter
Jun 13
Full

Hourly Weather History & Observations

Time (EDT) Temp. Windchill Dew Point Humidity Pressure Visibility Wind Dir Wind Speed Gust Speed Precip Events Conditions
12:51 AM 43.0 °F 40.3 °F 30.9 °F 62% 30.17 in 10.0 mi West 4.6 mph - N/A   Clear
1:51 AM 45.0 °F 40.6 °F 30.9 °F 58% 30.17 in 10.0 mi West 8.1 mph - N/A   Clear
2:51 AM 44.1 °F 39.5 °F 33.1 °F 65% 30.16 in 10.0 mi WNW 8.1 mph - N/A   Clear
3:51 AM 43.0 °F 38.2 °F 33.1 °F 68% 30.16 in 10.0 mi WNW 8.1 mph - N/A   Clear
4:51 AM 42.8 °F 39.3 °F 33.8 °F 70% 30.15 in 10.0 mi NW 5.8 mph - N/A   Partly Cloudy
5:51 AM 44.1 °F 40.1 °F 34.0 °F 68% 30.17 in 10.0 mi West 6.9 mph - N/A   Overcast
6:51 AM 46.9 °F - 36.0 °F 66% 30.18 in 10.0 mi NNW 4.6 mph - N/A   Overcast
7:51 AM 50.0 °F - 35.6 °F 58% 30.16 in 10.0 mi NW 8.1 mph - N/A   Overcast
10:51 AM 57.0 °F - 37.0 °F 47% 30.15 in 10.0 mi WNW 11.5 mph 23.0 mph N/A   Mostly Cloudy
11:51 AM 57.0 °F - 36.0 °F 45% 30.15 in 10.0 mi NW 13.8 mph 20.7 mph N/A   Overcast
12:51 PM 57.0 °F - 35.1 °F 44% 30.14 in 10.0 mi NW 18.4 mph 28.8 mph N/A   Overcast
1:51 PM 57.9 °F - 35.1 °F 42% 30.13 in 10.0 mi NNW 10.4 mph 23.0 mph N/A   Overcast
2:51 PM 60.1 °F - 34.0 °F 38% 30.12 in 10.0 mi NNW 16.1 mph 23.0 mph N/A   Overcast
3:51 PM 60.1 °F - 35.1 °F 39% 30.11 in 10.0 mi North 13.8 mph - N/A   Mostly Cloudy
4:51 PM 57.2 °F - 35.6 °F 44% 30.10 in 10.0 mi North 13.8 mph 18.4 mph N/A   Mostly Cloudy
5:51 PM 57.0 °F - 35.1 °F 44% 30.12 in 10.0 mi NW 11.5 mph 17.3 mph N/A   Overcast
6:51 PM 57.9 °F - 36.0 °F 44% 30.11 in 10.0 mi NW 5.8 mph - N/A   Scattered Clouds
8:51 PM 53.1 °F - 34.0 °F 48% 30.11 in 10.0 mi WNW 3.5 mph - N/A   Mostly Cloudy
9:51 PM 51.1 °F - 34.0 °F 52% 30.11 in 10.0 mi NW 3.5 mph - N/A   Overcast
10:51 PM 52.0 °F - 33.1 °F 49% 30.10 in 10.0 mi Calm Calm - N/A   Mostly Cloudy
11:51 PM 46.0 °F 44.8 °F 35.1 °F 66% 30.11 in 10.0 mi East 3.5 mph - N/A   Mostly Cloudy